Date String (YYYY-MM-DD hh:mm:ss) UTC,Instrument flags,Ambient pressure (hPa),Sample flow (lpm),Bypass flow (lpm),Sample temperature (°C),Ambient temperature (°C),ASC tube jacket temperature (°C),LED temperature (°C),Box temperature (°C),Sample RH (%),Span deviation,Mass concentration (μg/m³),Mass concentration (μg/m³),Mass concentration (μg/m³)
DateTimeUTC,F1_M11,P_M11,Q1_M11,Q2_M11,T1_M11,T2_M11,T3_M11,T4_M11,T5_M11,U1_M11,ZSPAN_M11,X0_M11,X2_M11,X1_M11
2023-02-13 00:00:00,,0824.4,5.02,0.00,22.4,21.0,00.0,31.2,24.3,13.4,0000.0,0009.87,0004.43,0004.00
2023-02-13 00:01:00,,0824.6,4.98,0.00,22.4,21.0,00.0,31.2,24.3,13.4,0000.0,0009.81,0004.37,0003.97
2023-02-13 00:02:00,,0824.7,5.01,0.00,22.4,21.1,00.0,31.2,24.3,13.4,0000.0,0010.42,0004.36,0003.94
2023-02-13 00:03:00,,0824.6,4.99,0.00,22.4,21.1,00.0,31.2,24.3,13.1,0000.0,0010.56,0004.34,0003.89
2023-02-13 00:04:00,,0824.4,4.99,0.00,22.4,21.1,00.0,31.2,24.3,13.1,0000.0,0011.18,0004.27,0003.84
2023-02-13 00:05:00,,0824.5,4.98,0.00,22.4,21.1,00.0,31.2,24.3,13.1,0000.0,0011.31,0004.25,0003.80
2023-02-13 00:06:00,,0824.5,5.00,0.00,22.4,21.1,00.0,31.2,24.3,12.9,0000.0,0011.27,0004.21,0003.76
2023-02-13 00:07:00,,0824.6,5.00,0.00,22.4,21.1,00.0,31.2,24.3,12.9,0000.0,0011.15,0004.17,0003.72
2023-02-13 00:08:00,,0824.4,4.96,0.00,22.4,21.1,00.0,31.3,24.4,12.9,0000.0,0010.67,0004.16,0003.69
2023-02-13 00:09:00,,0824.6,5.01,0.00,22.5,21.2,00.0,31.3,24.4,12.9,0000.0,0011.01,0004.15,0003.66
2023-02-13 00:10:00,,0824.7,5.00,0.00,22.5,21.2,00.0,31.3,24.4,12.9,0000.0,0010.16,0004.10,0003.63
2023-02-13 00:11:00,,0824.4,4.98,0.00,22.5,21.2,00.0,31.3,24.4,12.9,0000.0,0009.48,0004.08,0003.60
2023-02-13 00:12:00,,0824.4,4.98,0.00,22.5,21.3,00.0,31.3,24.4,12.9,0000.0,0009.33,0004.03,0003.57
2023-02-13 00:13:00,,0824.4,5.01,0.00,22.5,21.3,00.0,31.3,24.5,13.1,0000.0,0009.04,0003.99,0003.55
2023-02-13 00:14:00,,0824.4,4.99,0.00,22.5,21.3,00.0,31.3,24.5,13.1,0000.0,0009.04,0003.95,0003.54
2023-02-13 00:15:00,,0824.5,5.00,0.00,22.6,21.3,00.0,31.3,24.5,12.9,0000.0,0008.24,0003.94,0003.55
2023-02-13 00:16:00,,0824.5,4.99,0.00,22.6,21.4,00.0,31.3,24.5,12.9,0000.0,0008.10,0003.94,0003.53
2023-02-13 00:17:00,,0824.5,5.00,0.00,22.6,21.4,00.0,31.3,24.5,12.9,0000.0,0008.39,0003.91,0003.53
2023-02-13 00:18:00,,0824.4,4.99,0.00,22.6,21.4,00.0,31.4,24.5,12.9,0000.0,0008.65,0003.91,0003.53
2023-02-13 00:19:00,,0824.4,5.01,0.00,22.6,21.4,00.0,31.4,24.6,12.8,0000.0,0008.52,0003.88,0003.52
2023-02-13 00:20:00,,0824.4,5.01,0.00,22.6,21.4,00.0,31.4,24.6,12.7,0000.0,0008.28,0003.87,0003.49
2023-02-13 00:21:00,,0824.4,4.99,0.00,22.6,21.4,00.0,31.4,24.6,12.7,0000.0,0008.46,0003.86,0003.48
2023-02-13 00:22:00,,0824.3,4.99,0.00,22.6,21.4,00.0,31.4,24.6,12.7,0000.0,0008.49,0003.83,0003.45
2023-02-13 00:23:00,,0824.3,5.00,0.00,22.6,21.3,00.0,31.4,24.6,12.7,0000.0,0008.58,0003.84,0003.45
2023-02-13 00:24:00,,0824.3,4.99,0.00,22.6,21.3,00.0,31.4,24.6,12.7,0000.0,0008.61,0003.85,0003.44
2023-02-13 00:25:00,,0824.3,4.98,0.00,22.6,21.3,00.0,31.4,24.5,12.7,0000.0,0008.00,0003.83,0003.43
2023-02-13 00:26:00,,0824.3,4.98,0.00,22.6,21.3,00.0,31.4,24.5,12.7,0000.0,0008.06,0003.85,0003.43
2023-02-13 00:27:00,,0824.3,5.01,0.00,22.7,21.3,00.0,31.4,24.6,12.7,0000.0,0008.09,0003.85,0003.43
2023-02-13 00:28:00,,0824.3,5.00,0.00,22.7,21.3,00.0,31.5,24.6,12.7,0000.0,0007.93,0003.86,0003.43
2023-02-13 00:29:00,,0824.4,4.99,0.00,22.7,21.4,00.0,31.5,24.6,12.7,0000.0,0007.58,0003.85,0003.43
2023-02-13 00:30:00,,0824.4,4.99,0.00,22.7,21.4,00.0,31.5,24.6,12.7,0000.0,0007.46,0003.84,0003.43
2023-02-13 00:31:00,,0824.4,4.99,0.00,22.7,21.4,00.0,31.5,24.6,12.7,0000.0,0007.22,0003.82,0003.43
2023-02-13 00:32:00,,0824.4,4.99,0.00,22.7,21.5,00.0,31.5,24.6,12.8,0000.0,0006.77,0003.81,0003.44
2023-02-13 00:33:00,,0824.4,5.02,0.00,22.7,21.5,00.0,31.5,24.6,12.8,0000.0,0006.63,0003.84,0003.45
2023-02-13 00:34:00,,0824.4,5.00,0.00,22.7,21.5,00.0,31.5,24.6,12.8,0000.0,0006.71,0003.86,0003.45
2023-02-13 00:35:00,,0824.4,4.99,0.00,22.7,21.5,00.0,31.5,24.6,12.8,0000.0,0006.58,0003.85,0003.45
2023-02-13 00:36:00,,0824.4,4.99,0.00,22.7,21.5,00.0,31.5,24.7,12.7,0000.0,0006.59,0003.85,0003.45
2023-02-13 00:37:00,,0824.4,5.04,0.00,22.7,21.5,00.0,31.5,24.7,12.7,0000.0,0006.50,0003.83,0003.44
2023-02-13 00:38:00,,0824.4,4.98,0.00,22.7,21.5,00.0,31.5,24.7,12.7,0000.0,0006.63,0003.85,0003.44
2023-02-13 00:39:00,,0824.4,5.00,0.00,22.8,21.5,00.0,31.5,24.7,12.7,0000.0,0006.94,0003.85,0003.44
2023-02-13 00:40:00,,0824.4,5.00,0.00,22.8,21.5,00.0,31.5,24.7,12.7,0000.0,0006.99,0003.85,0003.43
2023-02-13 00:41:00,,0824.4,4.98,0.00,22.8,21.5,00.0,31.5,24.7,12.7,0000.0,0007.35,0003.88,0003.43
2023-02-13 00:42:00,,0824.4,5.00,0.00,22.8,21.5,00.0,31.6,24.7,12.7,0000.0,0007.49,0003.90,0003.43
2023-02-13 00:43:00,,0824.5,5.00,0.00,22.8,21.5,00.0,31.6,24.7,12.7,0000.0,0007.77,0003.91,0003.44
2023-02-13 00:44:00,,0824.4,4.99,0.00,22.8,21.6,00.0,31.6,24.7,12.7,0000.0,0007.87,0003.92,0003.44
2023-02-13 00:45:00,,0824.5,4.99,0.00,22.8,21.6,00.0,31.6,24.7,12.8,0000.0,0007.79,0003.91,0003.44
2023-02-13 00:46:00,,0824.4,5.02,0.00,22.8,21.5,00.0,31.6,24.7,12.8,0000.0,0007.77,0003.92,0003.46
2023-02-13 00:47:00,,0824.4,5.00,0.00,22.8,21.6,00.0,31.6,24.7,12.7,0000.0,0007.80,0003.95,0003.46
2023-02-13 00:48:00,,0824.7,5.01,0.00,22.8,21.6,00.0,31.6,24.7,12.7,0000.0,0007.86,0003.96,0003.47
2023-02-13 00:49:00,,0824.4,5.01,0.00,22.8,21.6,00.0,31.6,24.7,12.7,0000.0,0007.90,0003.96,0003.48
2023-02-13 00:50:00,,0824.5,4.99,0.00,22.8,21.6,00.0,31.6,24.7,12.7,0000.0,0007.66,0003.94,0003.48
2023-02-13 00:51:00,,0824.8,4.98,0.00,22.8,21.6,00.0,31.6,24.7,12.7,0000.0,0007.94,0003.99,0003.48
2023-02-13 00:52:00,,0824.5,4.99,0.00,22.8,21.6,00.0,31.6,24.7,12.7,0000.0,0008.01,0004.01,0003.49
2023-02-13 00:53:00,,0824.5,4.94,0.00,22.8,21.6,00.0,31.6,24.7,12.7,0000.0,0007.85,0003.98,0003.49
2023-02-13 00:54:00,,0824.7,5.01,0.00,22.8,21.6,00.0,31.6,24.8,12.7,0000.0,0008.39,0003.99,0003.48
2023-02-13 00:55:00,,0824.5,4.99,0.00,22.8,21.6,00.0,31.6,24.7,12.7,0000.0,0008.63,0003.99,0003.49
2023-02-13 00:56:00,,0824.4,4.99,0.00,22.8,21.6,00.0,31.6,24.7,12.7,0000.0,0008.71,0003.98,0003.49
2023-02-13 00:57:00,,0824.4,4.98,0.00,22.8,21.6,00.0,31.6,24.7,12.7,0000.0,0008.88,0004.00,0003.49
2023-02-13 00:58:00,,0824.5,4.97,0.00,22.8,21.6,00.0,31.6,24.7,12.7,0000.0,0009.23,0004.00,0003.48
2023-02-13 00:59:00,,0824.4,5.00,0.00,22.8,21.6,00.0,31.7,24.8,12.7,0000.0,0009.64,0003.99,0003.48
